Regional Weather Roundup
Issued by NWS

Home | Current Version | Previous Version | Graphics & Text | Print | Product List | Glossary On
Versions: 1 2 3 4 5 6 7 8 9 10 11 12 13 14 15 16 17 18 19 20 21 22 23 24 25 26 27 28 29 30 31 32 33 34 35 36 37 38 39 40 41 42 43 44 45 46 47 48 49 50
000
ASUS44 KMEG 300900
RWRTN
TENNESSEE HOURLY STATE WEATHER ROUNDUP
NATIONAL WEATHER SERVICE MEMPHIS TN
400 AM CDT FRI SEP 30 2016

TNZ002-004-019-021-049-052-054-088>092-301000-
WEST TENNESSEE

CITY           SKY/WX    TMP DP  RH WIND       PRES   REMARKS
MEMPHIS INTL   CLOUDY    62  55  77 CALM      30.10F
NWS MEMPHIS      N/A     59 N/A N/A MISG        N/A
JACKSON          N/A    N/A N/A N/A MISG      30.09F
DYERSBURG      CLOUDY   N/A N/A N/A MISG        N/A
PARIS          CLOUDY    54  54 100 CALM      30.08S
LEXINGTON      CLOUDY    52  52 100 CALM      30.07F
$$

TNZ008-025-027-028-033-062-065-066-301000-
NORTH MIDDLE TENNESSEE

CITY           SKY/WX    TMP DP  RH WIND       PRES   REMARKS
NASHVILLE      MOCLDY    50  48  93 CALM      30.06S
CLARKSVILLE    CLOUDY    57  54  89 W5        30.05F
SMYRNA         CLOUDY    50  49  96 S5        30.07S
COOKEVILLE     CLOUDY    52  52 100 CALM      30.04F
CROSSVILLE     FOG       47  47 100 W6        30.05S VSB 1/4
$$

TNZ061-075-076-078-094-096-097-301000-
SOUTH MIDDLE TENNESSEE

CITY           SKY/WX    TMP DP  RH WIND       PRES   REMARKS
SHELBYVILLE    CLOUDY    48  48 100 CALM      30.07S VSB 0
$$

TNZ017-018-042-046-047-301000-
NORTHEAST TENNESSEE

CITY           SKY/WX    TMP DP  RH WIND       PRES   REMARKS
TRI CITIES     CLOUDY    57  55  93 CALM      30.01S
$$

TNZ012-013-036-069-073-074-301000-
CENTRAL EAST TENNESSEE

CITY           SKY/WX    TMP DP  RH WIND       PRES   REMARKS
KNOXVILLE      CLEAR     52  47  83 SW3       30.02S
OAK RIDGE      PTCLDY    49  46  90 CALM      30.04F
GATLINBURG     MOCLDY    55  48  76 CALM      30.01F
$$

TNZ083-085-099-301000-
SOUTHEAST TENNESSEE

CITY           SKY/WX    TMP DP  RH WIND       PRES   REMARKS
CHATTANOOGA    CLEAR     53  48  83 NW3       30.04S
$$

SKY/WX REPORTED AS FAIR MEANS FEW OR NO CLOUDS BELOW
12 THOUSAND FEET.





USA.gov is the U.S. government's official web portal to all federal, state and local government web resources and services.